Total_Precipitation_Accumulation
0.60 0.61 0.67 0.68 0.71 0.80 0.93 1.01 1.04 1.02 0.99 1.05 1.16 1.22 1.20 1.18 1.17 1.14 1.08 1.03 0.98 0.93 0.90 0.93 0.95 0.95 1.02 1.05 1.09 1.17 1.28 1.42 1.46 1.19 1.01 1.00 1.06 1.08 1.08 0.99 0.93 0.94 0.92
0.47 0.47 0.49 0.53 0.54 0.59 0.69 0.78 0.83 0.88 0.91 0.91 0.90 0.92 0.98 1.01 1.04 1.05 1.01 0.97 0.92 0.88 0.85 0.86 0.88 0.90 0.97 1.02 1.09 1.15 1.21 1.28 1.34 1.23 1.04 0.94 0.89 0.84 0.82 0.79 0.73 0.70 0.68
0.38 0.39 0.40 0.40 0.41 0.44 0.48 0.54 0.58 0.64 0.73 0.79 0.77 0.76 0.75 0.75 0.78 0.84 0.89 0.91 0.90 0.87 0.87 0.89 0.90 0.93 0.97 1.01 1.07 1.13 1.14 1.12 1.10 1.04 0.89 0.77 0.70 0.66 0.68 0.66 0.63 0.61 0.57
0.34 0.34 0.35 0.34 0.35 0.37 0.37 0.39 0.42 0.44 0.48 0.52 0.55 0.58 0.63 0.63 0.62 0.64 0.70 0.77 0.84 0.88 0.89 0.91 0.94 1.01 1.08 1.11 1.12 1.11 1.08 1.03 0.97 0.92 0.84 0.73 0.64 0.57 0.58 0.61 0.61 0.56 0.51
0.32 0.29 0.28 0.30 0.30 0.30 0.29 0.28 0.27 0.26 0.28 0.32 0.37 0.41 0.46 0.50 0.53 0.57 0.59 0.64 0.69 0.76 0.85 0.92 0.97 1.06 1.09 1.03 0.94 0.88 0.83 0.81 0.81 0.80 0.75 0.66 0.57 0.52 0.51 0.47 0.48 0.49 0.48
0.30 0.27 0.25 0.25 0.26 0.26 0.24 0.21 0.20 0.20 0.22 0.24 0.28 0.33 0.38 0.42 0.55 0.55 0.51 0.54 0.63 0.69 0.73 0.78 0.84 0.89 0.83 0.79 0.74 0.69 0.70 0.73 0.73 0.66 0.59 0.50 0.41 0.37 0.37 0.42 0.48 0.55 0.55
0.35 0.30 0.27 0.27 0.27 0.27 0.28 0.28 0.27 0.26 0.26 0.28 0.30 0.33 0.37 0.45 0.56 0.56 0.61 0.58 0.62 0.66 0.65 0.62 0.60 0.59 0.59 0.51 0.52 0.53 0.54 0.55 0.52 0.48 0.46 0.39 0.35 0.32 0.39 0.47 0.49 0.50 0.42
0.44 0.42 0.39 0.40 0.42 0.44 0.47 0.46 0.45 0.45 0.45 0.45 0.45 0.47 0.50 0.58 0.65 0.61 0.60 0.55 0.54 0.53 0.49 0.44 0.42 0.41 0.40 0.42 0.44 0.45 0.39 0.35 0.33 0.30 0.28 0.27 0.30 0.35 0.43 0.52 0.53 0.53 0.45
0.61 0.66 0.65 0.64 0.68 0.71 0.76 0.78 0.75 0.72 0.71 0.70 0.70 0.69 0.67 0.65 0.61 0.52 0.45 0.41 0.38 0.36 0.33 0.31 0.30 0.30 0.35 0.40 0.39 0.39 0.36 0.33 0.33 0.34 0.33 0.33 0.36 0.40 0.44 0.51 0.59 0.69 0.63
0.75 0.80 0.78 0.77 0.78 0.78 0.79 0.79 0.76 0.71 0.68 0.65 0.64 0.60 0.55 0.48 0.42 0.34 0.30 0.26 0.24 0.23 0.23 0.24 0.27 0.29 0.37 0.45 0.40 0.38 0.38 0.34 0.35 0.37 0.36 0.35 0.33 0.34 0.40 0.39 0.45 0.68 0.70
0.74 0.71 0.64 0.61 0.57 0.54 0.51 0.49 0.46 0.43 0.40 0.38 0.35 0.31 0.26 0.24 0.23 0.22 0.21 0.18 0.18 0.20 0.22 0.23 0.25 0.32 0.39 0.46 0.48 0.43 0.41 0.42 0.40 0.39 0.40 0.38 0.38 0.37 0.36 0.34 0.35 0.54 0.74
0.47 0.39 0.33 0.32 0.30 0.28 0.28 0.26 0.23 0.21 0.19 0.18 0.16 0.14 0.13 0.13 0.15 0.17 0.20 0.21 0.22 0.21 0.20 0.20 0.23 0.34 0.40 0.43 0.43 0.45 0.50 0.51 0.44 0.43 0.43 0.42 0.39 0.38 0.36 0.35 0.35 0.38 0.45
0.16 0.13 0.11 0.10 0.11 0.11 0.12 0.13 0.11 0.09 0.08 0.08 0.09 0.09 0.10 0.11 0.13 0.17 0.19 0.22 0.25 0.24 0.21 0.25 0.30 0.36 0.38 0.36 0.38 0.42 0.46 0.44 0.42 0.43 0.41 0.35 0.32 0.32 0.36 0.40 0.42 0.42 0.42
0.07 0.07 0.06 0.06 0.06 0.08 0.09 0.10 0.11 0.10 0.09 0.10 0.11 0.11 0.11 0.11 0.12 0.15 0.18 0.21 0.26 0.26 0.24 0.26 0.30 0.34 0.36 0.36 0.36 0.37 0.38 0.39 0.41 0.42 0.38 0.35 0.35 0.38 0.40 0.42 0.47 0.49 0.54
0.08 0.08 0.09 0.08 0.08 0.09 0.11 0.12 0.14 0.14 0.15 0.16 0.16 0.16 0.18 0.16 0.15 0.23 0.28 0.28 0.30 0.32 0.36 0.36 0.35 0.33 0.34 0.34 0.33 0.33 0.34 0.38 0.41 0.41 0.44 0.44 0.43 0.43 0.43 0.42 0.49 0.57 0.61
0.11 0.11 0.13 0.14 0.14 0.15 0.15 0.16 0.19 0.20 0.22 0.23 0.22 0.22 0.21 0.22 0.25 0.31 0.34 0.35 0.38 0.45 0.50 0.42 0.34 0.31 0.31 0.30 0.31 0.32 0.33 0.36 0.38 0.43 0.49 0.52 0.53 0.53 0.52 0.48 0.52 0.60 0.59
0.18 0.19 0.19 0.20 0.20 0.21 0.22 0.23 0.22 0.24 0.27 0.28 0.26 0.25 0.25 0.27 0.30 0.32 0.34 0.37 0.41 0.48 0.47 0.34 0.28 0.28 0.30 0.31 0.33 0.36 0.37 0.35 0.42 0.51 0.56 0.57 0.61 0.63 0.62 0.61 0.59 0.63 0.61
0.16 0.18 0.20 0.19 0.20 0.22 0.23 0.25 0.26 0.26 0.25 0.24 0.24 0.27 0.29 0.31 0.33 0.35 0.40 0.46 0.45 0.41 0.34 0.28 0.27 0.28 0.32 0.36 0.38 0.41 0.43 0.44 0.49 0.54 0.56 0.59 0.66 0.73 0.73 0.67 0.64 0.67 0.70
0.15 0.17 0.19 0.21 0.22 0.23 0.25 0.26 0.27 0.26 0.25 0.23 0.23 0.27 0.33 0.39 0.42 0.41 0.44 0.44 0.37 0.30 0.25 0.25 0.28 0.32 0.37 0.41 0.44 0.47 0.51 0.53 0.52 0.56 0.57 0.58 0.65 0.79 0.76 0.63 0.65 0.67 0.76
0.17 0.22 0.27 0.27 0.26 0.27 0.28 0.30 0.30 0.29 0.28 0.27 0.26 0.27 0.38 0.50 0.46 0.38 0.36 0.33 0.31 0.28 0.27 0.30 0.32 0.37 0.43 0.47 0.50 0.54 0.56 0.54 0.54 0.58 0.57 0.59 0.65 0.77 0.78 0.69 0.70 0.75 0.71
0.19 0.23 0.31 0.30 0.27 0.27 0.30 0.33 0.34 0.35 0.33 0.30 0.27 0.32 0.52 0.58 0.47 0.36 0.34 0.33 0.34 0.35 0.37 0.40 0.41 0.43 0.47 0.51 0.54 0.55 0.56 0.53 0.52 0.57 0.60 0.63 0.69 0.76 0.71 0.73 0.72 0.75 0.81
0.22 0.23 0.26 0.28 0.28 0.30 0.35 0.38 0.39 0.38 0.35 0.32 0.30 0.35 0.50 0.50 0.42 0.38 0.37 0.36 0.36 0.39 0.44 0.51 0.50 0.46 0.50 0.58 0.64 0.66 0.60 0.52 0.50 0.59 0.65 0.65 0.70 0.72 0.74 0.79 0.81 0.87 0.90
0.24 0.26 0.26 0.27 0.29 0.33 0.36 0.34 0.34 0.35 0.34 0.33 0.34 0.35 0.40 0.41 0.38 0.37 0.38 0.39 0.41 0.43 0.46 0.52 0.53 0.47 0.46 0.55 0.64 0.77 0.79 0.63 0.58 0.70 0.86 0.86 0.84 0.86 0.92 0.96 0.90 0.87 0.78
0.24 0.26 0.28 0.28 0.29 0.31 0.31 0.30 0.30 0.33 0.35 0.36 0.36 0.35 0.35 0.36 0.37 0.37 0.39 0.41 0.44 0.45 0.47 0.50 0.50 0.48 0.48 0.55 0.59 0.62 0.68 0.76 0.95 1.07 1.21 1.40 1.30 1.12 1.06 0.98 0.85 0.78 0.77
0.26 0.28 0.31 0.32 0.33 0.34 0.34 0.33 0.33 0.33 0.35 0.37 0.37 0.36 0.35 0.36 0.37 0.36 0.38 0.41 0.44 0.45 0.44 0.46 0.49 0.50 0.51 0.53 0.55 0.57 0.63 0.77 1.04 1.39 1.54 1.48 1.25 1.06 1.03 0.97 0.85 0.80 0.79
0.27 0.31 0.33 0.35 0.36 0.36 0.37 0.36 0.35 0.35 0.37 0.37 0.38 0.39 0.39 0.39 0.38 0.39 0.40 0.43 0.44 0.43 0.42 0.43 0.44 0.48 0.52 0.54 0.51 0.54 0.64 0.73 0.82 0.98 1.29 1.37 1.21 1.03 1.03 1.08 0.94 0.89 0.87